This demonstration page uses our WeatherBlox Daily Observations layout. Learn more.

Left ArrowRight Arrow

30.21309, -93.2044

Hourly Observations for August 22, 2020

Temp ( °F °C ) Dew Point ( °F °C ) Humidity (%) Winds ( mph kmh ) Pressure ( in mb ) Visibility ( mi km ) Precip ( " mm )
12:15 am 00:15 Clear 75 23.8 71 21.9 89 89 Calm 29.86 1011 10 16 0.00 0.00
12:35 am 00:35 Clear 74 23.2 71 21.7 91 91 Calm 29.86 1011 10 16 0.00 0.00
12:55 am 00:55 Clear 75 23.8 72 22 90 90 Calm 29.86 1011 10 16 0.00 0.00
1:15 am 01:15 Clear 75 24.1 72 22 88 88 Calm 29.86 1011 10 16 0.00 0.00
1:35 am 01:35 Clear 75 23.8 72 22.4 92 92 NE 3 6 29.86 1011 10 16 0.00 0.00
1:55 am 01:55 Clear 73 22.8 71 21.8 94 94 E 5 7 29.86 1011 10 16 0.00 0.00
2:15 am 02:15 Clear 73 22.7 71 21.7 94 94 Calm 29.86 1011 10 16 0.00 0.00
2:35 am 02:35 Clear 73 22.7 71 21.8 95 95 Calm 29.86 1011 10 16 0.00 0.00
2:55 am 02:55 Clear 74 23.2 72 22 93 93 Calm 29.86 1011 10 16 0.00 0.00
3:15 am 03:15 Clear 73 23 71 21.8 93 93 Calm 29.87 1011 10 16 0.00 0.00
3:35 am 03:35 Clear 74 23.3 71 21.9 92 92 Calm 29.87 1011 10 16 0.00 0.00
3:55 am 03:55 Clear 72 22.3 71 21.4 95 95 E 3 6 29.87 1011 10 16 0.00 0.00
4:15 am 04:15 Clear 72 22.1 70 21.3 95 95 E 3 6 29.88 1012 10 16 0.00 0.00
4:35 am 04:35 Clear 72 22.4 71 21.6 95 95 Calm 29.87 1011 10 16 0.00 0.00
4:55 am 04:55 Clear 73 22.8 71 21.5 92 92 Calm 29.87 1011 10 16 0.00 0.00
5:15 am 05:15 Clear 73 22.8 71 21.5 92 92 Calm 29.88 1012 10 16 0.00 0.00
5:35 am 05:35 Clear 73 22.5 71 21.4 94 94 Calm 29.88 1012 10 16 0.00 0.00
6:00 am 06:00 Mostly Clear 72 22 72 22 100 100 Calm 29.87 1011 10 16 0.00 0.00
6:50 am 06:50 Mostly Sunny 73 23 70 21 89 89 Calm 29.88 1012 10 16 0.00 0.00
7:50 am 07:50 Mostly Sunny 75 24 72 22 89 89 Calm 29.90 1013 10 16 0.00 0.00
8:50 am 08:50 Mostly Sunny 81 27 73 23 79 79 Calm 29.90 1013 10 16 0.00 0.00
9:45 am 09:45 Mostly Sunny 84 29 73 23 70 70 N 8 13 29.92 1013 10 16 0.00 0.00
10:55 am 10:55 Partly Cloudy 88 31 73 23 62 62 W 8 13 29.93 1014 10 16 0.00 0.00
11:55 am 11:55 Mostly Cloudy 90 32 70 21 52 52 N 8 13 29.92 1013 10 16 0.00 0.00
12:50 pm 12:50 Partly Cloudy 90 32 70 21 52 52 NNW 6 9 29.91 1013 10 16 0.00 0.00
1:50 pm 13:50 Partly Cloudy 91 33 72 22 52 52 N 7 11 29.90 1012 10 16 0.00 0.00
2:45 pm 14:45 Partly Cloudy 93 34 70 21 47 47 NNE 8 13 29.89 1012 10 16 0.00 0.00
3:45 pm 15:45 Partly Cloudy 93 34 66 19 41 41 NNE 5 7 29.88 1012 10 16 0.00 0.00
4:45 pm 16:45 Partly Cloudy 91 33 66 19 44 44 NE 7 11 29.87 1011 10 16 0.00 0.00
5:45 pm 17:45 Mostly Cloudy 90 32 68 20 49 49 NE 15 24 29.86 1011 10 16 0.00 0.00
6:50 pm 18:50 Cloudy with Thunderstorms 82 28 66 19 58 58 ESE 15 24 29.86 1011 10 16 0.00 0.00
7:50 pm 19:50 Cloudy with Thunderstorms 75 24 68 20 78 78 SSE 14 22 29.88 1012 10 16 0.00 0.00
8:45 pm 20:45 Cloudy 75 24 70 21 83 83 SSW 7 11 29.89 1012 10 16 0.00 0.00
9:45 pm 21:45 Cloudy 79 26 70 21 74 74 Calm 29.90 1013 10 16 0.00 0.00
10:15 pm 22:15 Mostly Cloudy 78 25.6 70 20.9 75 75 Calm 29.91 1013 10 16 0.00 0.00
10:35 pm 22:35 Partly Cloudy 78 25.5 70 21.2 77 77 NE 3 6 29.91 1013 10 16 0.00 0.00
10:55 pm 22:55 Clear 78 25.3 70 21.3 79 79 NNE 3 6 29.92 1013 10 16 0.00 0.00
11:15 pm 23:15 Clear 77 24.9 71 21.4 81 81 Calm 29.92 1013 10 16 0.00 0.00
11:35 pm 23:35 Clear 76 24.5 71 21.5 83 83 Calm 29.92 1013 10 16 0.00 0.00
11:55 pm 23:55 Clear 76 24.5 70 21.3 82 82 N 3 6 29.93 1014 10 16 0.00 0.00

Powered by AerisWeather